Theta_e
334 332 333 334 332 333 338 342 344 343 342 342 342 342 341 338 336 333 332 331 330 331 333 334 332 329 324 320 320 321 318 315 313 314 318 324 326 326 327 327 328 328 328 328 328 328 328 328 328 328 328 329 331 333 334 334 334 333 332 332 332 331 331 332 333 334 335 335 336 336 334 333 334 336 335 334 334 334 335 334 335 335 335 334 334
333 333 332 333 331 332 336 341 342 342 341 341 341 342 341 339 337 335 334 333 331 332 333 334 335 334 332 329 324 321 319 316 314 313 317 323 325 327 327 327 328 329 329 329 328 328 328 328 328 328 328 329 332 334 335 336 336 336 335 334 335 335 333 332 331 331 332 332 333 333 332 333 335 337 336 335 333 333 334 335 334 335 335 335 334
332 334 331 332 331 331 333 338 339 340 341 340 341 342 341 339 338 336 336 335 332 331 332 333 335 337 335 334 331 325 321 318 315 313 315 320 325 326 327 328 328 329 329 329 329 329 329 329 329 328 328 329 332 333 334 334 335 336 336 337 338 338 337 336 334 332 331 331 332 333 334 336 336 337 336 336 335 333 333 334 334 334 334 334 333
333 334 332 333 331 330 330 334 338 340 340 339 340 341 342 339 339 338 337 337 335 331 330 331 333 337 337 335 334 329 323 320 316 313 313 317 323 326 327 328 328 329 329 329 329 330 330 329 329 329 329 329 330 333 334 334 335 336 337 338 338 338 339 339 338 336 334 332 333 334 334 336 337 337 336 336 336 335 332 332 333 333 334 333 333
335 334 333 333 331 331 329 332 337 339 340 341 341 341 341 340 339 339 339 339 338 333 329 329 329 332 336 337 335 332 325 321 317 314 313 315 322 325 326 328 329 329 329 330 330 330 330 330 330 330 330 329 329 331 334 334 335 336 337 338 338 338 338 339 339 339 337 335 335 336 335 335 336 336 336 336 336 336 333 331 333 333 334 334 333
335 334 333 332 331 331 329 332 337 340 340 342 344 342 341 340 340 339 340 340 340 336 330 328 327 325 332 336 335 334 327 321 318 314 313 314 321 324 326 328 328 328 329 330 330 331 330 330 330 330 330 330 329 330 332 334 335 335 337 337 337 338 338 339 338 339 339 336 336 338 337 336 336 335 335 334 334 334 333 332 332 332 333 333 332
336 333 334 332 332 331 330 332 337 339 339 343 344 343 343 341 341 341 340 340 341 339 332 327 326 322 327 333 335 335 330 324 319 314 313 315 321 323 325 327 327 328 329 330 330 330 330 329 328 329 329 330 330 330 332 334 335 335 336 337 337 338 338 337 337 338 338 336 336 337 336 337 337 336 335 333 332 332 332 332 331 331 331 332 332
337 335 334 332 332 331 330 331 336 339 340 342 342 343 343 342 343 341 341 341 341 340 334 327 324 322 326 333 336 334 331 329 320 314 313 315 321 322 325 327 327 328 329 330 330 330 329 329 328 328 328 329 330 330 331 332 333 334 335 337 337 337 337 336 337 338 337 335 334 335 334 336 338 337 336 332 330 331 332 332 331 331 330 331 331
337 336 334 333 332 330 330 330 335 338 339 342 341 342 343 343 343 342 342 342 342 340 335 327 324 325 331 337 338 335 331 332 324 315 315 316 320 323 325 327 328 327 328 329 330 330 329 329 329 328 327 328 330 330 330 330 331 332 334 336 337 337 336 336 337 337 336 334 334 334 333 335 336 336 335 331 330 331 331 331 331 330 330 330 330
338 336 335 333 332 331 330 329 333 337 340 342 342 342 342 342 342 342 342 342 341 340 335 327 327 332 336 338 338 337 333 334 329 318 316 317 320 324 325 326 328 327 328 329 330 330 329 329 329 328 328 328 329 330 331 330 331 333 334 337 338 336 336 336 336 337 337 336 334 333 334 335 335 335 333 331 331 331 330 330 329 329 329 329 329
338 337 335 333 332 331 329 330 332 335 340 341 342 342 341 341 341 342 342 342 341 340 337 329 331 337 339 338 336 338 336 335 333 323 318 318 321 324 325 325 327 328 328 329 329 330 329 329 329 329 327 327 329 330 331 330 331 334 336 337 337 335 336 337 337 337 337 336 334 333 334 335 335 334 332 331 331 331 330 329 329 327 326 326 326
340 337 335 333 333 331 329 330 332 334 338 339 341 341 341 341 341 342 341 341 341 340 339 335 336 338 338 338 336 337 337 336 336 331 323 320 324 325 324 324 325 328 328 328 329 329 329 329 329 328 327 327 328 330 331 331 332 334 336 337 336 335 335 336 337 338 337 335 334 334 334 335 336 334 332 331 331 331 330 330 329 327 323 323 323
340 338 336 335 333 332 329 330 332 334 337 339 339 340 340 340 340 341 340 340 339 339 340 338 338 338 338 337 337 337 337 337 337 335 329 323 326 326 322 322 324 326 327 328 329 329 329 328 328 327 326 326 327 330 330 331 332 334 336 335 336 335 334 335 337 338 336 334 333 334 335 335 335 334 332 332 331 330 330 331 330 326 322 321 322
340 339 338 337 335 332 330 330 333 335 337 338 338 340 340 339 340 340 340 338 336 337 339 338 337 337 337 337 338 337 337 338 338 335 333 328 328 327 322 320 322 324 326 328 329 328 328 327 327 326 324 324 327 330 330 331 332 333 334 334 336 335 334 335 337 337 335 333 333 334 335 334 334 334 333 333 331 329 331 331 329 324 320 319 319
340 340 340 338 336 334 332 332 334 336 338 339 339 339 340 340 340 340 341 339 336 335 337 339 337 336 336 337 337 338 337 338 338 336 336 333 332 331 324 319 318 321 325 327 328 328 327 326 326 324 322 323 327 330 330 332 332 333 334 335 336 336 335 335 337 337 334 333 333 335 335 334 334 334 334 332 331 330 331 331 327 321 314 313 312
341 341 341 339 338 336 334 335 335 336 337 338 337 338 339 339 339 340 340 339 338 336 336 338 336 335 336 337 338 338 337 338 339 338 338 336 335 334 328 323 318 318 323 327 328 328 327 326 325 323 320 321 326 330 330 331 332 333 334 335 336 335 335 336 337 337 335 333 334 335 335 335 334 334 333 332 331 331 332 330 328 320 309 306 307
342 341 342 340 339 338 337 338 337 335 336 335 335 336 336 336 336 337 338 337 338 338 336 336 335 336 336 336 338 337 337 338 339 339 339 337 336 334 330 326 321 317 321 326 328 328 327 325 324 322 319 319 325 330 330 331 332 333 334 336 336 335 336 337 338 337 336 334 335 335 335 335 335 335 334 333 332 331 332 331 328 319 306 302 305
342 342 341 341 340 339 338 339 338 335 335 333 332 333 332 332 331 330 334 336 338 338 336 335 335 336 336 336 338 337 337 339 338 337 338 337 336 335 331 327 323 319 320 326 328 327 326 324 323 322 319 318 323 329 330 331 332 332 334 336 337 336 336 337 337 338 337 334 335 335 335 335 335 335 334 333 333 332 332 330 327 316 303 300 306
341 342 342 341 340 340 339 338 338 336 334 332 331 333 332 330 328 325 328 334 338 337 335 336 337 336 335 336 337 337 337 338 339 337 336 338 337 335 333 330 326 322 321 326 328 326 324 322 322 321 319 317 321 327 329 331 332 332 333 335 337 337 337 337 337 338 338 335 335 336 336 336 336 336 335 334 333 332 331 329 324 312 300 300 309
341 341 342 341 340 340 340 338 337 336 333 331 332 333 332 329 327 324 323 332 337 336 336 337 337 336 335 337 336 337 338 338 338 337 336 337 336 335 334 332 328 323 321 326 327 325 322 320 321 321 320 317 319 325 329 330 331 332 333 335 336 336 338 337 338 338 337 335 335 336 336 336 336 336 335 333 332 331 329 328 320 305 299 300 307
342 341 342 341 341 340 340 338 337 337 334 331 332 332 332 329 327 325 323 332 336 335 337 337 337 337 336 337 337 337 338 338 338 336 336 336 335 334 332 331 328 323 320 324 327 324 321 319 320 321 320 318 317 323 328 330 331 332 333 335 336 336 337 337 338 337 335 335 335 336 336 335 336 335 335 333 331 330 328 325 314 301 299 300 303
343 342 342 341 341 340 340 338 337 337 335 332 332 332 332 330 328 326 325 332 336 335 336 337 337 337 336 338 338 338 338 338 337 335 335 335 334 333 331 329 325 321 319 323 326 322 320 319 319 321 321 318 316 320 326 330 331 331 332 334 336 336 336 337 337 336 334 334 335 335 336 335 336 335 335 333 331 329 326 320 307 299 299 299 300
343 342 342 342 341 340 340 339 337 337 335 332 333 333 332 331 329 327 326 331 335 335 336 336 336 336 337 337 338 339 338 337 337 335 335 333 332 333 332 329 323 319 318 321 325 321 320 318 318 320 321 319 316 318 325 329 330 331 332 334 336 336 336 337 337 335 333 334 335 335 335 335 335 336 335 333 331 328 323 313 302 299 299 299 299
343 343 342 342 341 340 340 339 337 336 334 333 335 335 332 331 330 328 326 329 334 336 336 335 335 336 337 336 337 339 338 336 336 336 335 333 333 334 333 331 325 319 319 321 322 321 320 318 318 320 321 320 317 318 323 328 331 331 332 334 336 336 335 337 336 334 333 333 335 335 335 335 335 335 334 332 330 326 318 307 299 299 300 301 302
342 342 343 342 341 340 341 340 337 334 332 334 337 336 333 333 332 329 328 330 333 334 334 334 335 335 336 335 336 338 338 337 337 337 336 335 335 335 334 333 329 322 319 320 321 320 319 318 318 319 321 321 318 321 325 326 330 332 331 334 336 335 335 336 336 334 333 333 334 335 334 334 335 334 333 331 327 322 312 302 299 301 302 303 304
343 342 343 342 341 341 341 341 337 334 333 334 336 337 336 334 335 333 329 329 330 331 333 334 335 335 335 335 335 337 337 337 337 337 337 336 335 336 335 334 332 327 321 319 320 320 319 318 318 318 320 322 320 324 332 331 330 331 332 334 335 335 335 336 336 334 332 333 334 334 334 334 334 334 332 329 324 318 308 300 302 305 306 305 302
343 343 342 342 341 340 341 341 339 337 334 334 335 336 338 336 336 336 333 331 328 328 331 333 335 335 335 336 337 337 337 337 337 338 338 337 336 337 335 334 334 332 328 322 320 320 319 318 318 318 319 322 321 324 334 337 333 332 332 334 335 335 336 336 336 335 332 332 333 333 333 333 333 332 330 326 321 315 305 302 305 307 309 309 305
344 343 343 342 341 339 338 339 340 339 337 336 335 336 338 337 336 337 337 335 332 329 329 330 334 335 336 336 337 338 338 338 338 339 339 338 338 337 336 335 335 334 333 330 324 320 318 318 317 317 318 320 321 322 329 334 335 335 334 333 335 336 336 336 337 335 333 330 331 332 332 332 331 329 327 324 320 313 304 303 306 307 310 313 309
344 343 343 342 341 339 336 335 338 341 340 339 338 337 339 339 338 338 338 337 336 333 331 330 330 332 335 336 337 338 338 339 338 338 339 339 338 337 337 336 335 334 333 333 329 322 317 317 316 315 316 318 321 322 324 326 329 334 336 334 334 335 336 337 337 336 333 329 328 330 332 331 329 328 325 323 319 311 306 308 309 308 312 314 311
343 343 342 341 340 339 337 334 335 339 341 340 340 339 339 339 339 338 338 338 338 336 334 333 329 329 331 334 337 337 337 338 338 338 338 338 337 337 337 336 336 334 333 332 329 322 317 316 315 313 315 318 323 326 327 325 325 330 336 335 333 334 336 337 337 336 333 329 327 329 331 330 328 326 324 322 316 311 312 314 313 312 314 314 311
343 343 342 342 340 340 338 337 335 338 340 341 340 340 340 339 339 339 338 337 337 337 337 336 333 331 329 330 335 336 336 337 338 338 338 337 337 337 336 336 336 334 333 331 326 319 315 316 316 315 318 323 326 328 329 329 327 327 333 334 333 334 336 337 336 335 332 329 327 328 329 328 327 325 322 320 314 311 314 314 314 314 314 313 311
343 343 343 342 342 341 340 339 337 338 340 341 341 342 341 340 339 339 340 338 336 337 338 337 336 334 332 330 331 332 334 336 336 336 338 337 336 335 335 337 337 334 333 333 328 320 316 320 325 325 327 329 330 329 329 330 329 328 331 333 332 334 336 336 335 334 333 330 328 328 326 326 326 323 321 318 311 309 312 313 314 315 314 313 312
343 343 343 342 342 342 341 340 339 338 340 340 342 344 343 342 340 339 339 339 338 337 338 338 338 336 335 333 328 326 331 334 334 335 336 336 335 334 334 336 336 335 334 334 334 329 325 330 333 333 334 334 333 332 331 330 329 330 332 331 333 335 335 335 334 334 333 332 329 327 325 324 323 322 319 313 308 307 311 314 315 315 315 313 311
343 342 343 342 341 342 342 341 340 338 339 341 343 345 345 344 341 340 340 339 339 339 339 338 339 337 336 335 329 326 330 333 332 334 335 334 334 334 333 335 336 336 335 334 336 334 332 334 334 334 334 335 334 333 331 330 330 331 332 332 333 335 334 334 334 333 333 332 329 327 325 324 322 319 314 311 309 307 308 313 315 315 317 315 312
343 343 342 341 341 342 342 342 341 339 340 342 345 345 345 345 343 341 341 341 341 341 341 339 340 339 337 337 333 330 332 332 331 333 334 333 334 333 332 334 336 337 337 335 336 336 334 333 332 333 334 334 334 332 331 330 330 331 331 333 334 334 334 334 333 333 332 331 330 328 326 324 322 316 312 314 313 309 307 310 313 315 316 316 314
342 343 343 341 340 342 342 343 343 342 341 342 344 345 344 346 344 342 342 343 342 342 342 341 341 340 339 338 336 333 334 334 332 333 335 335 334 333 333 335 337 338 337 336 337 336 335 334 333 334 335 335 334 332 331 331 331 331 333 334 333 334 334 333 333 332 331 331 330 330 327 325 323 317 315 318 317 312 307 307 312 313 312 315 317
341 342 342 341 340 339 341 343 343 343 342 341 344 345 345 346 345 343 343 344 343 343 343 342 341 341 341 340 337 334 334 335 333 332 335 337 335 333 334 336 337 338 337 337 337 335 334 333 334 335 335 334 334 333 332 332 333 333 334 335 334 334 334 333 332 332 331 331 331 331 329 327 325 321 319 320 319 314 308 306 311 311 309 311 315
341 341 340 341 339 335 338 341 342 343 343 343 344 345 345 346 346 344 344 344 344 343 344 343 342 342 341 341 338 335 334 335 333 332 334 337 336 334 336 336 336 337 337 337 337 335 335 334 335 336 335 335 334 334 333 334 334 335 335 335 335 334 333 332 332 332 332 332 332 331 330 328 326 323 321 321 320 315 311 311 312 308 306 307 309
341 340 340 341 339 336 337 339 341 342 343 343 343 345 346 346 346 345 344 345 344 344 344 344 343 340 338 339 338 336 335 335 334 332 334 338 338 336 337 337 336 337 337 337 337 336 336 336 335 335 335 335 335 335 335 335 335 335 336 335 335 335 334 333 332 332 332 332 332 331 330 329 327 324 322 321 320 317 315 317 317 311 305 303 305
341 340 340 341 340 340 340 339 339 341 343 344 344 345 345 345 345 345 344 345 344 344 344 344 342 339 337 337 337 336 334 335 334 332 334 338 339 338 337 337 337 337 337 337 337 336 335 336 335 334 335 335 336 336 336 336 335 335 335 335 336 335 334 333 332 332 332 332 332 330 330 329 327 325 322 321 321 319 318 319 319 315 307 301 301
341 340 340 341 340 339 339 340 335 338 342 344 345 344 344 345 344 344 344 344 344 344 344 343 342 340 337 336 335 335 335 335 333 331 334 338 339 339 338 338 338 336 336 337 336 335 334 335 335 334 335 335 336 337 337 336 335 334 334 334 334 334 333 333 332 331 332 331 330 329 329 328 327 324 323 322 321 319 319 320 320 318 311 302 301
340 340 340 340 340 339 339 339 335 335 341 343 344 344 343 343 343 344 344 344 344 343 343 343 342 340 338 336 336 335 335 335 333 331 335 339 339 339 338 337 336 335 336 336 335 334 333 334 334 334 335 336 336 337 337 336 334 333 332 332 332 332 332 332 332 331 329 328 327 327 328 327 325 323 322 321 320 319 319 320 320 319 316 307 305
339 339 339 339 340 339 339 340 340 337 339 342 344 344 343 343 343 343 343 343 343 343 343 343 342 340 339 337 337 337 336 335 334 332 334 338 339 338 338 337 336 334 335 335 334 333 332 333 334 335 336 336 337 337 337 336 335 333 332 333 333 332 333 332 331 332 329 325 324 325 326 325 324 323 322 321 319 318 318 319 319 319 317 312 310
339 340 339 339 340 340 339 340 342 340 338 341 344 344 343 343 342 342 343 343 343 343 343 342 342 341 339 338 337 337 336 334 335 334 334 337 339 338 337 337 335 334 335 335 334 333 333 334 334 336 337 337 337 337 337 337 335 333 333 333 331 331 336 333 330 331 330 327 323 322 323 322 322 322 321 320 318 317 317 318 318 318 317 313 313
340 340 339 339 340 340 340 342 343 344 342 341 343 344 343 343 342 341 341 342 342 342 342 341 341 340 339 338 337 337 336 334 336 334 333 336 338 337 338 338 335 334 336 335 335 335 334 335 336 338 338 338 337 337 338 336 335 334 334 334 332 334 337 332 329 332 331 330 327 323 321 321 321 321 319 319 317 317 317 316 316 317 317 314 312
340 340 340 340 341 341 342 343 344 344 344 343 344 344 343 342 341 341 341 341 341 341 341 340 340 339 338 337 336 337 336 335 336 335 332 334 337 337 338 339 337 336 337 337 337 338 338 337 339 339 339 339 338 337 337 337 335 334 333 333 334 335 334 330 331 334 331 330 331 328 324 321 321 320 319 318 317 317 316 316 315 315 316 314 312
340 340 341 342 342 343 343 344 345 344 344 344 344 343 342 342 341 341 340 341 341 341 341 340 340 339 337 337 337 336 336 335 336 336 331 331 334 335 336 339 341 340 340 340 340 341 341 340 340 340 340 339 338 336 337 337 335 334 333 332 332 332 332 330 331 334 334 331 330 330 329 325 322 321 320 320 318 318 317 316 315 314 314 314 313
341 341 343 344 344 345 344 345 345 344 344 344 344 343 342 342 341 340 340 340 341 340 341 341 340 339 338 338 338 337 336 336 336 337 332 329 332 333 334 338 341 341 341 342 342 342 342 341 340 340 340 340 339 337 336 336 335 334 333 333 332 332 332 331 331 332 335 335 331 329 330 329 325 322 321 321 320 319 319 317 316 315 313 313 312
344 343 345 346 345 345 345 345 345 344 344 343 344 343 342 342 341 340 340 340 340 340 340 340 339 339 338 338 338 337 336 336 336 336 333 330 332 334 334 336 339 342 341 342 343 343 342 342 341 341 341 341 339 338 336 336 336 335 334 333 332 332 332 333 332 329 330 334 334 330 328 328 326 323 322 321 321 320 320 319 317 315 314 312 311
346 346 347 347 346 346 345 345 345 344 344 343 343 343 342 341 341 340 340 339 340 340 339 340 339 338 337 337 337 337 336 336 336 335 334 332 333 336 337 338 339 341 341 342 342 343 342 342 341 341 341 341 339 338 336 335 335 335 335 334 332 332 332 332 332 330 328 329 332 331 326 326 326 324 323 321 321 321 321 319 317 315 314 313 311
348 348 348 348 347 346 345 344 344 344 343 343 343 343 342 341 341 340 340 339 339 339 339 339 338 338 337 337 337 337 336 336 336 335 335 335 336 337 339 340 340 340 341 342 342 343 342 342 342 341 341 341 340 338 336 335 335 335 335 334 333 333 332 332 332 332 329 327 330 330 325 325 326 325 325 324 322 322 321 320 317 315 314 313 312
Wind_Speed
34 32 30 29 26 26 25 26 25 25 26 25 25 24 24 23 23 23 22 22 21 20 19 19 20 21 21 21 22 23 24 25 25 26 28 28 28 27 26 24 24 23 23 22 22 22 21 22 22 22 21 21 21 22 23 24 24 24 25 24 24 23 22 21 19 19 18 18 19 19 19 19 19 18 18 18 18 17 17 18 18 18 18 17 17
39 35 33 30 28 27 26 26 25 26 26 25 25 24 24 23 23 23 22 22 21 21 20 19 19 21 21 21 21 22 23 24 24 24 26 27 27 26 25 23 23 22 21 21 21 21 21 20 20 20 21 20 20 21 21 21 22 23 23 23 22 22 22 21 19 18 17 18 18 19 18 18 17 17 17 17 18 18 16 17 17 17 16 16 16
40 37 34 31 29 27 27 26 26 26 26 26 26 25 25 24 23 22 22 22 21 21 20 19 19 19 20 21 20 20 21 22 23 23 25 26 26 26 24 23 22 21 20 20 19 20 19 19 19 19 19 19 19 19 20 20 20 20 20 19 19 18 19 19 19 18 17 17 19 19 18 17 16 16 15 16 17 18 17 16 16 16 15 15 15
40 39 35 32 29 28 27 26 26 26 26 26 26 26 25 24 24 23 22 21 21 21 20 20 19 19 19 20 20 19 20 21 22 23 24 25 26 25 24 23 22 20 19 18 18 18 18 17 17 17 17 18 18 18 18 18 18 17 17 16 15 14 14 15 15 16 17 17 18 18 18 17 16 15 15 16 16 17 17 16 16 16 15 15 15
41 38 36 33 30 28 27 26 26 25 25 25 25 25 25 25 24 23 22 21 21 20 20 20 19 19 19 19 19 19 19 20 21 22 23 25 25 25 23 22 21 20 18 18 18 18 17 16 16 15 15 16 16 16 16 16 16 16 15 13 13 12 11 11 10 11 13 15 15 15 16 17 16 15 15 15 15 15 15 16 16 15 15 15 15
41 39 37 34 30 28 27 27 25 25 25 24 23 24 25 24 24 23 22 21 20 20 20 20 20 19 19 19 19 19 19 19 21 23 23 24 25 24 23 22 21 19 18 18 17 17 17 16 15 14 13 13 14 15 15 14 14 14 13 12 12 12 10 10 9 8 10 12 13 12 13 15 15 15 14 14 14 14 14 15 15 15 15 15 15
40 39 37 34 31 28 27 27 25 25 25 24 23 22 24 24 23 23 22 21 20 20 20 20 20 20 19 19 19 18 18 18 20 22 23 24 24 24 23 22 21 19 18 18 17 17 16 15 15 14 13 12 12 14 14 14 13 13 12 11 11 12 11 10 8 8 10 12 13 12 13 14 14 14 14 13 13 14 14 15 15 15 14 14 15
39 38 36 34 31 29 28 27 25 25 24 24 23 21 22 22 22 22 21 21 20 20 20 21 21 20 20 19 18 18 18 18 19 21 23 24 24 23 23 22 21 20 18 17 16 16 15 14 14 14 13 12 11 12 13 13 13 12 11 11 12 12 11 11 11 10 12 13 13 13 14 14 13 13 13 13 14 14 14 14 14 14 14 14 14
38 37 36 35 31 29 28 27 26 25 25 24 23 22 21 21 21 20 20 19 19 20 20 21 21 21 19 19 18 17 18 18 18 20 22 23 23 23 22 22 21 20 18 17 16 15 14 14 13 13 12 12 11 11 11 12 11 11 10 11 12 11 10 12 13 13 13 13 13 14 14 13 13 13 12 13 15 14 14 14 14 14 14 13 13
38 36 36 34 31 29 27 27 26 25 25 24 24 22 21 20 20 19 19 18 19 20 21 21 21 20 18 18 18 16 17 18 19 19 21 22 23 23 22 21 20 19 18 16 15 14 13 13 12 12 11 11 10 10 11 10 10 10 10 11 12 12 12 13 13 13 13 13 13 14 14 13 13 14 13 13 14 14 14 14 14 14 13 12 11
36 35 35 33 31 29 28 27 26 25 24 24 24 22 22 21 20 19 18 18 18 19 20 21 20 19 18 18 18 17 17 18 18 18 19 20 22 22 22 21 20 18 17 16 15 14 13 12 11 11 10 9 9 10 10 10 9 9 9 10 12 12 12 12 13 13 13 13 13 14 13 13 13 13 12 13 13 13 13 13 13 12 10 9 8
34 35 34 33 31 28 28 27 26 25 23 24 23 22 22 21 21 19 18 18 19 19 19 19 19 19 18 18 18 17 17 17 17 17 18 19 20 21 22 21 20 18 17 16 14 13 12 11 11 10 10 9 8 9 10 10 9 8 8 9 11 12 12 11 12 12 12 12 13 14 14 13 13 12 12 13 13 13 13 13 12 10 9 8 8
32 33 33 32 30 28 27 27 26 24 23 23 22 21 20 20 20 19 18 18 19 20 18 18 18 19 19 18 19 17 17 17 16 17 18 18 18 19 21 21 20 18 17 16 14 13 12 11 10 9 9 8 7 8 10 9 9 8 7 8 10 12 11 10 10 11 11 12 12 14 14 13 12 11 12 13 12 12 12 12 10 9 10 10 9
34 32 32 32 29 28 26 27 25 23 23 22 22 21 20 19 19 19 18 18 18 19 19 18 18 19 19 19 18 17 17 17 16 16 17 18 17 17 19 20 20 19 17 16 14 13 12 11 10 9 8 8 7 8 9 9 9 8 6 7 9 9 9 10 9 9 10 11 12 13 14 13 12 11 11 12 11 11 12 11 9 10 10 10 9
33 31 31 30 29 27 26 26 24 23 22 20 20 20 20 18 18 20 20 20 18 19 19 18 18 18 18 19 18 17 17 17 16 15 17 18 17 16 18 19 19 19 18 16 15 13 12 11 10 9 8 8 7 8 9 8 8 7 6 7 8 8 9 10 10 9 10 10 12 13 13 12 11 10 10 10 10 11 10 8 9 12 11 10 9
30 30 29 29 28 27 26 24 23 22 21 20 19 18 18 17 18 19 20 21 20 19 18 18 18 17 18 19 18 18 18 18 16 15 16 17 17 16 17 18 18 18 18 17 15 13 12 11 10 8 8 8 8 8 8 7 7 6 6 8 8 9 10 10 10 9 9 10 12 13 13 12 10 10 9 9 10 11 8 6 10 13 12 11 10
28 28 27 27 26 27 26 23 22 22 21 20 18 17 16 15 16 17 19 20 21 21 19 19 18 17 17 18 19 19 19 18 17 16 15 15 16 15 16 16 16 17 17 17 16 14 12 10 9 8 7 8 8 8 8 7 6 6 7 8 8 10 11 10 9 9 9 10 12 12 12 11 10 9 9 9 10 10 8 6 10 12 12 11 11
26 26 26 26 25 26 25 23 22 22 21 19 18 17 16 16 15 17 18 19 21 21 20 20 19 17 17 18 19 19 19 19 17 15 13 14 14 14 15 15 14 15 16 17 16 14 13 11 9 8 7 8 8 8 8 7 5 6 7 8 8 9 10 10 9 9 9 10 12 12 12 11 9 9 9 9 10 9 7 7 10 11 11 10 11
26 25 24 24 25 25 25 23 23 22 21 20 18 17 16 17 16 17 18 19 21 21 21 21 19 18 17 17 19 19 19 18 17 15 13 13 14 13 13 13 13 12 14 17 16 14 13 11 10 8 7 7 8 8 8 7 5 5 6 7 7 8 9 8 8 7 8 9 11 12 11 10 9 9 8 8 8 7 6 7 9 9 9 10 11
25 25 24 23 25 25 25 24 24 23 22 21 19 18 17 17 16 16 18 20 21 22 22 21 19 19 18 18 19 20 19 18 17 15 13 12 12 12 11 11 11 12 13 16 16 15 13 12 10 9 7 7 8 9 8 7 5 4 4 5 6 6 7 7 7 6 7 10 11 11 11 10 9 8 7 7 7 6 6 8 9 8 8 9 10
25 25 24 23 24 25 26 25 25 24 23 22 19 18 18 17 16 17 18 20 21 22 23 21 19 19 18 19 20 20 19 19 17 16 14 13 12 10 9 10 11 12 13 16 16 14 14 12 11 9 8 7 8 9 8 7 5 4 3 4 5 5 6 6 6 6 8 10 10 10 10 9 8 7 6 6 6 6 7 8 7 7 7 8 9
26 25 24 24 24 25 25 25 25 24 23 22 20 19 18 18 17 17 19 20 21 21 22 21 20 19 19 19 21 21 20 20 18 17 15 14 12 9 8 8 10 12 13 17 17 14 14 12 11 10 9 8 8 9 9 7 6 4 4 5 5 5 6 5 5 7 9 10 10 10 9 8 8 6 5 4 5 6 7 7 6 6 6 7 9
27 27 26 25 24 24 24 25 26 24 23 22 21 21 20 19 18 18 19 21 21 21 22 22 21 20 19 19 21 21 21 20 18 17 16 13 12 9 8 7 8 10 13 17 16 14 13 12 12 11 10 9 8 9 9 8 7 6 4 4 5 5 6 5 5 7 10 10 10 9 8 8 7 6 5 3 4 5 6 5 4 5 6 7 9
27 28 27 26 25 24 24 25 26 25 24 22 22 21 21 20 19 19 20 22 22 22 22 22 21 21 20 20 21 22 21 19 17 17 15 14 12 10 9 8 8 9 12 16 15 14 14 13 12 12 11 10 9 9 9 9 8 7 6 5 4 5 6 6 6 8 10 10 10 9 8 7 6 6 4 2 3 4 5 4 4 5 6 8 10
29 28 27 26 25 24 24 25 25 26 25 23 23 21 21 20 20 19 20 22 22 22 22 21 21 21 22 22 21 22 22 20 18 17 16 15 13 12 11 9 8 9 12 15 14 14 13 13 13 12 11 11 10 9 9 10 9 8 7 6 5 6 7 7 8 9 10 10 10 9 8 7 7 6 3 1 2 3 3 3 4 5 7 8 9
30 29 29 28 25 23 23 23 24 25 24 23 23 22 21 21 20 20 20 21 21 22 22 22 22 22 23 22 22 23 22 20 19 18 17 16 14 13 12 10 9 9 11 13 14 14 14 14 13 12 12 11 11 10 10 10 9 9 8 7 6 7 8 8 8 9 10 10 9 9 8 8 7 5 2 0 1 2 2 3 5 6 7 8 8
31 30 31 30 29 26 23 22 23 24 23 23 23 23 22 22 21 20 20 21 21 21 23 23 23 24 23 22 22 23 22 21 20 19 18 17 15 13 11 11 10 10 10 11 13 14 15 15 14 13 12 11 11 11 11 10 9 10 10 9 9 9 9 9 9 9 10 10 10 9 8 7 6 4 2 1 1 1 2 4 6 6 7 7 8
29 29 31 31 31 30 27 25 24 24 24 24 24 24 23 22 22 22 22 21 21 21 22 23 24 24 24 23 23 22 21 21 21 20 18 17 16 13 11 11 10 10 11 12 13 14 15 15 14 13 13 12 12 12 12 11 11 11 11 11 11 10 10 10 10 10 10 10 9 9 8 7 5 4 3 2 2 2 4 5 6 6 7 7 7
29 30 32 32 33 33 31 30 28 26 25 25 25 25 24 24 24 24 23 23 22 22 21 22 24 25 25 24 24 24 22 22 22 21 19 18 16 13 12 12 11 11 12 13 14 15 16 15 14 14 13 13 13 12 13 13 13 13 14 13 12 12 12 12 11 11 10 9 8 8 8 6 5 4 3 3 2 3 5 6 6 6 7 8 7
32 33 32 34 34 33 33 32 31 29 27 27 26 26 26 26 26 26 24 24 23 22 21 22 23 25 26 26 25 25 23 22 21 21 20 18 17 14 13 13 12 11 12 13 14 16 16 15 14 14 14 13 13 12 12 14 15 16 16 15 14 14 14 14 12 11 11 10 8 8 8 6 6 5 4 3 3 4 7 7 6 7 7 7 7
34 34 33 35 35 34 33 32 32 31 30 29 27 27 27 27 28 28 26 25 23 22 22 22 23 24 24 26 27 26 24 23 22 22 22 20 18 15 14 15 14 11 11 11 12 15 15 14 13 13 13 12 13 13 13 15 17 19 19 17 16 16 16 15 13 12 12 11 10 9 7 6 6 5 4 4 4 5 7 7 7 7 7 7 7
36 37 37 37 34 33 32 31 31 31 32 31 29 28 28 29 29 28 28 25 23 23 24 24 25 25 24 24 26 27 26 25 23 23 23 22 20 16 15 16 14 11 10 9 10 12 13 13 12 12 12 12 13 15 15 16 19 21 21 19 17 17 17 16 14 12 12 12 11 9 7 6 6 5 5 4 4 6 7 7 7 7 7 7 7
37 39 40 36 32 32 31 30 30 31 33 32 32 30 29 30 30 29 28 26 24 24 25 26 26 27 25 24 25 26 26 26 24 22 23 23 21 17 17 17 15 13 11 10 10 10 12 13 12 12 13 15 16 16 15 16 18 22 22 20 19 19 18 16 14 13 12 13 12 10 7 6 6 6 6 4 5 6 7 8 8 8 7 7 7
38 39 40 35 30 32 32 31 32 33 34 33 33 32 30 29 30 29 28 27 26 25 26 27 27 28 28 26 25 26 25 25 23 21 22 24 22 19 18 18 17 15 14 12 12 12 13 14 14 15 16 16 16 14 14 15 18 22 22 21 20 20 19 16 14 13 13 13 12 10 8 7 6 7 7 5 5 5 6 8 8 8 8 7 7
37 38 38 34 30 33 34 34 35 35 36 35 33 32 30 29 30 29 28 28 27 26 26 28 29 29 29 28 27 27 25 23 23 21 21 23 24 21 20 20 18 17 17 15 15 15 15 16 17 17 16 15 14 15 17 16 18 22 22 21 21 21 19 16 15 14 14 13 12 11 9 7 6 7 7 6 5 5 6 8 8 8 8 7 7
36 38 36 33 33 34 36 37 37 37 37 36 34 32 30 29 29 30 29 29 29 27 27 28 29 29 30 30 29 29 26 24 23 22 22 22 23 22 22 22 18 16 17 17 16 16 17 18 17 16 16 16 16 18 19 19 20 21 21 21 21 21 19 17 16 15 15 14 12 12 11 9 7 7 8 7 5 5 6 7 8 8 8 7 7
37 38 37 37 37 35 36 39 39 39 38 37 35 31 31 30 30 31 30 30 31 30 28 28 29 30 31 32 31 30 28 26 24 23 23 22 22 22 21 22 19 16 16 16 15 15 17 19 16 14 15 16 17 18 20 20 20 21 21 21 20 21 20 18 18 16 15 14 14 14 13 12 9 9 9 7 6 6 6 6 7 7 7 7 7
40 40 41 42 39 35 37 39 40 39 37 36 35 32 31 30 29 31 32 32 33 32 30 29 30 31 32 33 33 32 31 28 26 25 25 23 22 22 21 21 22 19 17 17 17 17 18 20 17 15 15 15 17 18 18 19 20 21 21 20 19 20 19 19 19 18 17 16 15 15 15 14 13 12 11 10 9 8 7 6 6 6 7 7 7
42 41 43 41 37 38 40 41 40 38 37 35 34 32 31 30 30 31 32 33 34 34 32 32 31 30 31 33 34 34 33 30 27 26 27 25 23 24 22 22 23 21 20 19 20 20 20 20 18 16 15 14 15 16 16 17 18 19 20 19 19 20 19 17 18 20 20 19 18 18 18 17 15 14 13 12 10 9 8 6 5 6 7 8 7
40 41 42 38 36 38 39 40 39 37 35 33 32 31 31 30 30 30 32 34 35 35 35 34 32 30 30 33 34 35 32 29 27 28 30 26 24 25 23 23 24 23 23 23 24 23 22 22 19 17 16 14 14 15 15 16 17 17 17 18 18 18 17 16 16 17 20 21 21 20 19 18 17 16 14 13 11 10 9 8 7 5 6 8 7
33 36 37 36 38 39 38 38 37 36 35 34 34 34 34 32 31 32 33 34 35 35 35 36 34 31 30 32 34 33 30 28 27 30 33 28 26 26 25 25 25 24 25 26 26 25 24 23 21 18 16 15 16 15 16 17 17 13 11 13 14 15 16 15 14 13 16 20 21 20 20 20 20 18 16 14 13 12 11 10 9 7 6 7 7
32 35 37 39 40 39 39 37 35 38 39 38 39 38 38 36 34 34 34 34 35 36 36 36 35 32 30 31 32 31 30 29 27 31 35 30 27 28 27 27 26 26 27 26 27 27 25 24 23 20 16 16 16 17 18 18 16 14 11 8 7 10 12 13 13 12 13 17 18 19 21 22 22 20 18 17 15 14 13 12 11 8 7 9 9
37 39 41 42 40 38 39 35 34 41 42 41 42 41 41 40 36 34 34 34 34 36 36 36 35 33 32 31 31 31 30 29 28 31 36 33 30 31 30 28 28 28 28 28 29 28 27 26 25 23 19 17 16 17 20 19 16 15 12 6 3 5 7 10 13 13 13 15 18 19 20 22 21 20 20 18 16 15 15 13 13 12 9 10 12
34 37 40 41 39 38 40 37 35 41 44 43 45 45 41 37 34 32 32 32 32 34 34 34 35 34 34 33 32 32 32 31 30 31 36 36 32 32 32 30 30 30 30 31 31 29 28 27 27 25 22 19 17 18 21 21 20 17 10 3 2 3 3 7 13 16 15 15 18 19 20 20 20 20 19 18 16 16 16 16 15 15 12 11 12
34 36 39 41 40 40 42 40 37 39 43 46 47 44 38 34 31 27 26 28 28 31 32 33 36 36 36 36 35 35 34 32 32 32 36 38 34 34 34 31 31 31 31 32 32 30 29 29 28 26 25 23 21 20 22 23 23 22 16 7 3 2 3 5 7 13 18 18 18 20 20 19 19 19 19 19 18 17 18 18 18 17 16 14 13
35 37 39 42 43 43 43 43 40 38 39 44 47 43 38 36 34 29 28 28 27 30 35 36 37 38 37 37 36 37 36 34 34 33 36 39 36 35 36 33 32 33 33 33 33 31 31 31 29 28 27 26 23 21 24 26 23 24 23 15 8 4 3 6 4 4 13 19 20 20 21 21 21 21 21 20 20 21 20 20 20 20 19 18 17
39 40 38 40 42 42 43 44 43 41 39 39 42 42 40 38 38 37 35 34 31 33 37 37 36 37 36 37 37 38 38 36 36 35 35 39 38 37 38 35 33 34 34 34 34 33 32 32 30 29 27 26 26 24 25 28 24 24 26 21 12 6 4 8 6 2 3 10 18 21 21 22 23 24 24 23 23 23 23 22 22 22 21 21 20
42 42 39 40 42 43 44 44 43 43 42 39 40 42 42 40 41 40 37 37 37 36 36 35 34 35 35 36 36 39 40 37 38 37 36 38 38 37 39 38 36 35 35 35 35 34 33 32 30 29 28 27 28 27 27 29 27 26 28 25 17 9 7 8 9 8 4 2 9 15 19 21 23 26 26 26 26 25 25 25 24 23 22 22 22
39 40 42 43 44 44 44 44 43 43 42 40 42 44 44 43 42 40 37 38 38 34 31 32 33 34 35 36 36 38 40 39 39 39 37 38 38 38 39 39 38 37 36 35 35 35 33 33 31 30 30 29 29 29 28 30 31 29 27 27 23 16 12 10 11 12 7 3 4 6 12 16 18 26 30 28 28 28 27 27 26 25 23 22 23
41 42 43 43 44 45 43 43 44 43 42 42 44 45 45 43 40 40 39 38 36 32 29 30 33 34 35 36 36 37 39 40 40 40 39 39 39 39 39 40 39 38 37 36 36 36 35 34 33 32 31 31 30 31 30 31 32 31 29 28 26 21 15 11 12 14 9 6 5 4 11 14 13 22 30 32 32 31 29 29 28 27 26 24 24
42 42 41 41 43 44 44 45 46 44 43 43 45 46 46 43 41 42 42 40 36 33 31 32 34 35 35 37 37 37 38 40 41 41 40 40 40 41 40 40 39 38 38 37 36 36 36 35 34 33 33 32 31 31 31 31 31 32 31 29 29 27 23 17 17 18 13 7 5 4 10 17 16 20 26 30 34 33 31 29 29 29 28 27 27
Wind_Direction
171 168 165 165 168 163 159 154 152 152 150 150 148 146 144 141 139 136 133 131 130 129 126 124 122 121 120 121 120 118 119 123 124 127 130 128 124 123 122 120 117 115 114 111 107 103 99 97 95 96 95 94 95 97 96 94 93 93 93 93 92 91 90 89 89 90 90 89 88 88 88 86 85 86 85 84 82 82 82 80 80 80 78 78 77
170 168 166 167 170 165 161 157 155 155 153 153 150 148 147 145 143 139 136 132 132 131 129 127 125 123 122 121 121 121 121 125 128 130 133 132 128 125 123 121 119 117 115 112 107 103 99 96 95 95 94 93 95 98 98 97 96 95 95 94 92 91 90 89 88 89 93 95 93 92 89 86 87 89 89 87 84 83 83 82 80 79 78 77 75
165 165 167 167 170 167 163 159 158 157 157 156 153 151 149 148 146 142 139 134 133 133 132 131 128 125 123 122 122 124 124 127 130 133 136 136 133 128 124 122 122 121 118 114 109 104 100 97 94 93 93 93 95 98 100 99 98 97 96 94 93 93 92 91 88 87 89 93 95 94 92 89 87 86 86 86 85 83 81 81 80 78 77 76 75
163 164 166 167 170 168 165 162 159 159 159 158 155 154 153 152 148 145 142 138 136 135 135 134 132 128 125 125 123 125 127 130 133 135 138 139 137 131 126 124 124 124 121 117 111 106 101 98 95 92 91 92 95 98 99 100 99 96 94 91 92 92 92 92 86 85 86 89 92 92 92 90 86 83 81 79 80 80 77 78 80 78 76 76 77
162 163 165 167 169 169 167 163 160 160 160 157 156 156 155 154 151 148 145 143 139 137 138 138 136 133 130 128 126 127 130 133 136 137 139 141 139 134 129 127 127 127 124 119 113 107 102 99 95 92 90 91 94 97 100 99 97 94 90 87 85 81 80 83 82 85 88 89 90 90 91 92 91 87 83 80 78 77 76 79 80 78 77 76 78
162 163 165 166 168 169 167 164 160 159 160 156 155 157 157 156 153 151 149 147 144 141 140 141 140 138 136 133 131 129 129 135 140 140 141 143 142 138 132 129 130 129 127 121 115 109 104 100 95 93 90 91 93 97 101 100 97 93 89 82 72 70 74 79 83 99 105 97 96 94 91 91 93 93 89 85 81 79 76 78 78 77 77 76 77
162 163 164 166 168 168 167 164 160 159 159 156 156 159 159 157 154 152 152 151 148 145 142 143 141 140 139 136 135 132 131 134 141 142 142 144 144 141 135 132 132 131 129 123 118 112 107 101 95 92 89 89 94 98 101 103 101 96 88 76 70 70 76 85 91 115 122 108 106 104 94 90 90 90 88 86 85 83 79 77 77 76 77 77 77
161 163 164 166 167 168 168 165 160 159 159 156 157 159 159 158 155 154 154 154 152 149 145 145 143 142 141 139 138 136 135 134 141 144 143 145 145 144 139 135 134 134 132 128 123 116 111 104 97 91 87 86 92 100 102 104 102 98 87 74 75 72 73 94 106 119 120 108 109 109 101 96 93 90 85 83 85 85 83 80 77 76 76 76 77
161 163 164 165 166 168 168 165 161 160 158 157 159 159 160 159 156 156 155 154 153 151 148 147 146 144 142 142 143 141 139 136 141 146 145 145 146 146 142 139 137 137 135 130 125 118 112 106 99 91 85 82 89 101 103 103 101 96 86 75 75 73 77 100 115 119 113 106 109 110 106 104 97 94 89 85 86 85 83 80 77 76 75 76 77
161 163 164 165 165 168 169 166 162 160 158 157 160 160 161 160 159 159 157 156 154 154 151 150 148 144 145 146 146 145 142 140 142 147 147 147 148 149 147 144 140 138 136 133 128 122 116 109 103 95 89 81 85 100 106 104 102 96 85 77 72 76 88 102 119 121 113 109 108 106 105 106 100 97 95 91 90 85 81 79 77 77 76 76 76
160 163 164 165 165 169 169 165 162 160 158 157 160 161 163 161 160 160 160 159 155 154 153 153 150 145 147 150 151 149 147 145 143 148 151 150 151 152 151 149 145 142 139 138 133 126 120 113 108 101 95 87 86 101 110 106 103 100 88 79 72 80 93 103 119 123 116 112 109 107 105 105 103 100 97 96 92 86 80 76 77 76 72 72 74
160 163 164 165 165 168 169 165 163 160 157 157 159 162 164 163 161 161 161 161 157 154 154 154 152 148 150 154 154 151 151 150 146 148 153 154 153 155 155 153 150 148 146 142 136 130 123 117 112 106 101 95 94 104 112 108 106 104 90 76 71 81 94 104 120 125 117 113 112 111 109 107 105 100 97 97 93 86 78 73 72 64 60 65 69
159 162 163 164 165 168 169 165 163 160 158 157 158 161 165 163 160 161 162 161 158 154 154 157 155 152 155 157 155 153 154 153 152 152 154 158 156 158 159 158 156 154 152 146 141 135 129 123 117 111 106 103 104 110 114 110 109 109 92 69 66 79 96 110 123 126 117 112 114 113 110 108 106 102 99 97 93 86 77 73 64 50 56 66 67
159 161 161 163 164 166 168 165 163 159 158 157 157 160 164 164 160 161 162 161 158 156 156 159 159 157 158 159 159 157 158 156 156 157 156 160 160 163 162 161 161 160 158 152 149 143 135 131 124 117 111 113 116 118 118 114 111 110 98 72 64 78 100 120 129 125 115 113 114 115 113 110 109 105 101 98 92 85 80 75 52 41 55 63 62
159 159 160 161 162 164 166 165 162 158 157 158 157 159 163 165 164 164 165 162 159 160 159 160 162 162 160 160 163 162 161 159 160 162 160 163 165 166 164 165 166 164 162 159 156 149 144 136 128 122 116 121 126 127 125 119 114 108 99 78 69 88 110 125 131 122 113 116 119 119 115 112 112 109 103 96 85 79 83 74 38 36 49 52 55
157 157 159 160 160 162 164 163 160 159 158 159 159 159 164 166 168 168 169 166 161 162 162 164 166 165 163 162 166 165 163 162 164 165 164 168 170 169 167 169 170 165 165 165 161 155 150 141 132 126 121 128 132 134 133 128 118 104 90 77 78 102 119 125 127 120 112 120 125 123 118 114 114 112 104 92 80 76 81 59 29 33 40 45 57
155 155 157 159 160 161 161 160 161 162 161 161 161 160 165 166 169 171 172 171 166 165 166 168 169 166 167 165 167 167 165 164 168 169 168 175 176 175 173 174 174 167 168 169 165 161 154 146 138 132 128 133 138 140 138 136 122 101 90 82 88 108 122 129 129 122 116 123 129 126 121 118 116 111 102 89 80 77 76 45 29 30 37 50 67
154 155 156 159 160 161 161 160 162 164 163 163 163 164 167 168 171 174 176 175 170 169 168 168 169 168 169 169 169 168 165 167 172 174 174 181 183 183 181 182 180 170 171 172 168 165 159 152 145 140 137 137 142 147 145 143 128 107 97 89 98 118 131 138 136 127 119 126 132 129 124 122 118 111 101 89 82 81 75 42 28 28 40 59 76
155 156 157 162 163 163 162 161 166 166 165 164 164 166 168 170 172 176 178 175 173 171 168 168 170 172 172 171 173 169 167 170 175 178 180 185 189 190 188 188 185 175 175 175 171 168 163 158 152 147 144 142 146 152 153 150 139 118 101 93 108 132 142 143 136 129 128 133 136 132 128 127 121 115 105 94 90 84 64 37 28 32 49 67 81
156 159 159 165 166 166 166 166 170 168 168 168 167 169 169 172 172 174 176 172 173 172 168 169 171 173 173 172 175 170 169 175 180 184 186 188 191 194 192 191 188 182 182 179 175 171 167 162 159 154 150 148 151 159 161 159 154 134 112 100 115 142 151 145 134 134 141 142 140 134 131 129 123 119 109 102 96 73 45 30 28 38 58 73 84
156 162 163 169 170 169 170 170 172 170 171 170 169 171 171 172 172 172 172 169 172 173 170 170 173 174 174 173 174 171 172 178 183 186 190 191 191 192 191 192 190 186 187 184 179 175 171 167 165 159 155 156 157 164 167 167 168 158 136 116 124 154 159 148 138 143 149 147 142 136 134 131 125 121 112 105 84 53 35 26 30 48 65 75 85
158 164 168 172 173 173 173 173 173 172 172 172 171 172 173 173 172 171 171 170 170 173 175 175 177 179 178 177 176 174 176 182 185 186 192 194 191 196 198 194 192 188 189 187 183 179 175 173 171 166 160 163 166 169 171 174 180 180 157 131 137 159 166 155 143 148 152 151 144 139 138 132 127 124 118 107 66 40 29 25 39 61 72 79 88
160 165 170 173 174 175 176 175 174 175 174 174 174 176 177 175 173 171 171 172 170 172 177 181 185 185 183 183 181 178 181 186 188 189 194 195 192 201 204 197 192 186 188 189 187 183 180 180 178 173 167 168 173 174 173 178 188 194 179 156 155 166 172 166 155 155 156 154 146 144 143 135 134 133 132 111 48 33 27 30 58 73 80 86 91
163 166 170 173 176 178 178 178 178 179 178 176 176 178 180 178 175 173 172 173 173 174 178 183 187 188 188 189 186 183 186 190 190 194 196 194 194 200 201 198 193 185 186 190 191 190 186 186 185 180 174 174 178 177 176 183 191 200 199 185 180 184 179 169 160 161 162 156 148 150 149 142 146 150 151 113 41 29 27 44 76 84 90 88 90
164 167 170 173 177 181 181 180 181 182 182 179 178 181 182 179 176 176 176 176 178 179 180 182 184 187 190 191 190 187 190 193 192 196 200 197 198 201 200 197 197 192 190 193 195 197 194 192 193 188 182 181 183 178 178 186 193 203 208 199 193 189 179 168 164 167 168 158 151 155 153 150 159 170 177 101 43 28 36 72 90 91 95 92 92
163 167 170 173 177 182 183 183 184 185 186 185 183 184 185 183 180 180 180 181 184 183 181 182 182 185 188 190 192 191 192 196 196 200 205 204 203 204 203 202 203 202 199 200 201 202 201 200 200 196 191 191 189 184 184 189 194 205 211 206 202 192 185 178 172 173 171 160 155 160 159 160 169 184 200 83 36 40 69 101 105 99 100 97 94
164 169 171 174 177 181 186 187 188 189 191 192 191 190 189 188 185 184 185 186 188 186 184 185 185 186 187 189 191 191 192 196 200 203 207 206 206 207 208 211 212 214 212 210 209 208 207 205 206 204 201 202 198 194 196 196 197 207 214 211 208 203 196 187 180 181 177 167 163 166 168 171 182 199 208 179 123 99 114 120 118 110 106 102 93
163 167 170 174 178 182 186 188 191 194 196 197 198 197 194 193 191 191 192 191 192 190 189 189 190 190 190 189 188 188 189 194 199 203 207 206 208 212 214 220 222 224 223 219 217 215 212 210 210 209 210 211 207 204 207 208 207 211 218 216 213 212 203 192 187 187 184 179 172 169 171 181 201 206 190 169 155 136 133 130 125 116 114 112 100
164 168 172 177 181 184 185 187 191 195 198 199 201 202 200 198 197 197 197 197 198 194 193 195 195 194 194 190 187 187 186 190 198 202 206 208 210 215 219 225 228 229 225 220 218 218 217 213 212 213 216 218 218 215 216 221 221 217 219 221 220 215 205 196 192 193 190 188 181 173 174 192 213 202 182 174 170 153 137 131 128 123 124 123 115
168 170 176 182 184 184 185 188 191 193 197 198 202 205 205 203 202 202 201 202 203 200 197 198 197 196 196 193 189 190 190 192 199 203 207 211 212 215 224 229 231 231 225 219 213 215 217 214 214 216 217 222 226 227 227 231 231 222 219 224 225 215 205 198 194 197 195 191 188 180 180 198 212 198 188 186 177 156 142 138 135 129 129 128 125
169 171 181 187 184 183 185 189 192 194 195 196 201 206 208 208 207 206 205 206 206 204 202 201 199 196 195 195 194 195 195 197 203 208 211 214 214 217 228 232 232 231 222 211 203 208 212 210 214 214 217 228 236 241 243 243 237 226 219 223 225 213 204 198 192 195 197 193 193 191 187 195 209 206 200 197 182 161 150 146 145 138 135 133 131
172 176 185 187 183 184 186 188 192 195 195 196 199 204 208 211 211 209 208 210 208 206 206 205 203 201 198 197 198 199 198 199 203 211 215 215 214 217 229 232 232 229 217 204 196 201 202 203 210 213 224 240 247 253 257 253 239 223 215 218 219 208 203 197 190 195 197 194 194 196 193 195 211 217 210 204 185 167 160 155 151 146 142 139 137
178 180 186 186 182 186 189 190 193 196 198 199 199 201 207 210 211 212 212 213 212 210 209 208 207 207 205 202 201 200 199 198 201 210 216 216 213 216 229 232 232 230 222 211 207 206 200 203 214 225 239 249 256 259 253 245 230 214 208 212 210 203 201 196 193 193 194 195 196 197 196 200 213 212 207 204 185 173 167 161 156 154 151 150 147
180 179 184 183 181 187 190 192 194 197 200 202 202 201 205 209 211 213 214 214 215 214 212 211 209 210 211 208 202 197 197 199 201 209 214 214 211 214 227 233 235 235 230 224 223 217 209 213 223 237 251 255 255 245 229 221 212 204 203 206 205 200 198 197 195 191 191 197 198 200 201 202 211 204 199 197 186 181 176 169 165 163 162 164 160
181 181 185 182 181 188 191 193 196 198 200 202 203 202 205 209 211 213 215 215 216 216 215 214 211 211 213 213 207 198 197 200 204 208 209 210 212 216 224 231 236 236 231 229 229 224 218 222 232 240 242 236 228 214 206 202 196 198 201 201 199 197 197 197 196 192 193 199 202 207 210 207 210 203 199 200 195 192 189 182 175 172 172 175 174
184 184 186 184 184 189 193 195 195 197 199 201 203 204 206 209 211 213 216 217 217 216 216 216 214 213 214 215 211 203 200 201 204 208 208 211 215 216 222 227 230 228 224 224 223 222 222 227 231 228 216 204 199 195 194 192 189 192 196 195 195 197 197 195 196 198 199 204 210 215 218 215 212 212 209 207 204 199 195 190 187 187 182 180 182
188 187 188 188 186 188 195 197 197 198 199 201 203 204 206 209 212 213 216 219 218 217 216 216 215 215 217 217 213 207 204 201 204 209 211 216 215 213 218 223 223 218 214 215 213 216 223 225 219 209 204 197 189 186 186 188 188 189 190 193 195 198 199 195 195 202 205 208 216 222 225 222 217 219 219 217 215 207 200 195 197 201 197 192 191
188 191 192 191 187 186 195 200 200 199 199 200 203 205 207 211 214 215 216 219 220 219 218 216 216 218 219 217 212 207 204 203 208 212 212 218 216 211 215 219 221 217 212 213 214 215 221 223 215 201 201 201 192 186 186 188 187 187 189 194 197 198 200 200 199 203 208 213 222 229 229 225 221 221 218 218 221 211 200 197 206 218 216 209 203
188 193 194 194 189 186 192 199 201 200 200 201 202 204 207 211 214 215 215 218 219 217 217 217 215 215 215 213 209 205 205 208 213 214 212 217 215 211 214 217 220 219 214 215 217 217 217 219 219 205 197 201 201 196 191 190 189 190 193 194 197 198 199 201 204 210 216 222 228 231 229 226 226 226 219 216 220 215 207 210 224 235 230 222 215
190 193 196 197 194 190 191 195 198 201 200 198 201 204 206 208 209 210 210 213 214 213 215 215 212 210 208 207 204 203 207 212 217 215 211 215 215 211 213 217 220 219 213 214 218 219 216 217 220 211 198 195 198 200 196 192 189 190 195 197 198 200 200 204 212 220 225 228 231 231 228 226 226 229 225 221 225 225 225 230 232 237 234 225 218
192 195 197 199 199 195 194 193 193 200 201 197 200 203 203 203 203 204 206 207 208 209 210 211 210 209 208 206 206 207 211 215 217 213 209 213 214 211 212 216 220 218 212 214 218 219 219 219 220 215 206 197 195 197 196 189 181 178 189 199 202 203 206 213 223 228 229 230 231 228 224 221 223 227 227 227 230 227 229 234 230 230 236 223 212
194 196 199 202 202 199 199 199 193 195 201 201 201 203 204 203 203 203 204 205 205 206 207 208 209 209 209 209 210 213 214 216 216 211 208 211 213 211 211 215 218 215 214 217 218 219 220 220 219 216 212 209 206 201 194 186 178 173 174 178 195 207 212 219 223 224 225 228 227 223 219 218 219 221 222 225 229 227 229 235 231 230 235 221 212
195 196 199 202 203 201 203 207 198 191 198 202 201 203 206 205 205 205 204 203 205 207 207 208 210 211 211 211 214 215 215 216 217 213 210 210 212 212 210 213 216 214 215 217 216 219 220 219 219 220 215 210 209 205 199 194 185 172 162 161 183 200 224 229 224 220 217 220 221 220 221 221 220 218 218 222 228 231 233 238 238 237 238 226 220
199 197 199 199 201 202 203 207 203 195 196 200 202 204 205 204 205 207 205 204 206 207 208 210 212 214 213 214 217 218 216 217 218 216 212 210 212 212 210 212 214 213 215 216 215 218 220 219 219 221 217 205 200 202 202 200 194 179 157 121 131 146 235 235 224 223 217 214 217 218 223 226 223 219 219 225 233 239 240 240 240 239 241 237 230
201 200 198 197 199 202 203 204 207 202 196 197 201 201 200 199 201 203 202 202 204 205 206 209 212 213 213 214 217 219 217 217 218 216 212 210 212 212 210 211 212 213 215 216 217 220 221 221 221 222 218 211 204 201 202 202 202 197 183 156 130 161 234 212 211 226 223 218 216 217 222 227 228 227 227 232 238 241 243 242 240 238 238 239 237
204 204 201 197 198 201 201 201 204 206 202 198 197 196 196 196 194 194 194 196 199 203 205 208 209 209 210 212 215 218 218 216 217 216 212 211 213 213 210 210 211 212 214 217 220 223 223 223 223 222 220 218 213 202 199 202 205 205 198 191 190 193 191 173 160 232 227 223 222 220 222 224 229 233 234 236 239 239 240 243 243 240 238 237 236
204 206 204 201 199 200 201 200 201 204 205 202 197 194 195 195 195 197 198 198 201 206 210 211 211 209 209 210 212 216 217 217 216 216 214 212 213 214 211 211 212 212 214 218 221 224 224 223 223 223 221 219 215 206 201 200 203 209 208 207 206 194 178 181 177 168 210 225 225 223 225 227 229 233 235 237 240 241 241 242 244 245 244 240 238
203 203 204 203 202 200 201 201 201 202 204 203 199 196 196 196 198 200 202 204 207 210 211 211 212 210 209 210 211 214 216 216 216 215 214 213 213 214 213 213 213 214 216 218 221 224 225 224 224 223 222 220 218 215 209 201 201 207 210 212 213 208 200 205 212 205 167 190 224 223 226 229 232 233 236 239 240 243 245 244 244 245 248 246 242
208 204 204 203 202 202 201 201 202 203 203 201 199 199 199 198 200 201 203 207 210 211 210 209 210 209 208 209 210 211 213 214 214 213 213 212 213 214 214 214 215 216 217 219 221 223 224 224 223 221 221 222 222 222 217 210 207 208 208 211 216 218 220 228 230 218 196 184 212 220 218 221 232 234 234 236 239 243 246 246 245 244 247 249 247
211 209 207 203 201 202 201 201 203 204 203 201 200 201 201 200 201 202 205 209 209 209 208 207 208 208 208 209 209 210 210 210 211 211 212 211 212 213 214 215 216 217 218 219 219 221 223 224 223 222 222 224 224 222 221 220 217 215 211 210 212 216 221 226 222 213 206 205 212 222 210 205 222 233 231 232 236 241 243 243 243 241 242 245 246
212 209 207 204 202 201 201 201 203 203 202 201 201 201 201 201 202 205 207 209 207 204 204 205 207 208 209 209 209 208 208 208 208 209 210 210 211 212 213 215 216 217 218 219 219 219 222 224 224 223 223 225 226 224 223 223 222 220 217 214 212 214 215 216 215 209 202 198 203 222 217 212 221 233 234 234 236 238 241 241 240 239 240 241 241